owner,sensor,date,latitude,longitude,vertical_datum,wind_speed,wind_to_direction,wind_speed_of_gust,qcFlag 
COMPS,ioos:station:USF.COMPS:C13:1,2019-09-01T00:35:00,26.0630,-83.0730,1.3,5.5,97.29,6.44,'11111222,11111222,11111222' 
COMPS,ioos:station:USF.COMPS:C13:1,2019-09-01T01:35:00,26.0630,-83.0730,1.3,14.27,88.34,23.15,'11111222,11111222,11111222' 
COMPS,ioos:station:USF.COMPS:C13:1,2019-09-01T02:35:00,26.0630,-83.0730,1.3,7.33,123.97,8.74,'11111222,11111222,11111222' 
COMPS,ioos:station:USF.COMPS:C13:1,2019-09-01T03:35:00,26.0630,-83.0730,1.3,10.67,132.94,14.52,'11111222,11111222,11111222' 
COMPS,ioos:station:USF.COMPS:C13:1,2019-09-01T04:35:00,26.0630,-83.0730,1.3,9.17,118.79,11.14,'11111222,11111222,11111222' 
COMPS,ioos:station:USF.COMPS:C13:1,2019-09-01T05:35:00,26.0630,-83.0730,1.3,7.79,113.49,9.77,'11111222,11111222,11111222' 
COMPS,ioos:station:USF.COMPS:C13:1,2019-09-01T06:35:00,26.0630,-83.0730,1.3,7.97,111.73,10.34,'11111222,11111222,11111222' 
COMPS,ioos:station:USF.COMPS:C13:1,2019-09-01T07:35:00,26.0630,-83.0730,1.3,4.65,175.72,7.74,'11111222,11111222,11111222' 
COMPS,ioos:station:USF.COMPS:C13:1,2019-09-01T08:35:00,26.0630,-83.0730,1.3,7.8,138.48,9.86,'11111222,11111222,11111222' 
COMPS,ioos:station:USF.COMPS:C13:1,2019-09-01T09:35:00,26.0630,-83.0730,1.3,9.93,156.36,12.68,'11111222,11111222,11111222' 
COMPS,ioos:station:USF.COMPS:C13:1,2019-09-01T10:35:00,26.0630,-83.0730,1.3,9.64,121.37,11.59,'11111222,11111222,11111222' 
COMPS,ioos:station:USF.COMPS:C13:1,2019-09-01T11:35:00,26.0630,-83.0730,1.3,5.45,113.2,6.45,'11111222,11111222,11111222' 
COMPS,ioos:station:USF.COMPS:C13:1,2019-09-01T12:35:00,26.0630,-83.0730,1.3,5.93,97.48,7.52,'11111222,11111222,11111222' 
COMPS,ioos:station:USF.COMPS:C13:1,2019-09-01T13:35:00,26.0630,-83.0730,1.3,5.87,113.11,7.12,'11111222,11111222,11111222' 
COMPS,ioos:station:USF.COMPS:C13:1,2019-09-01T14:35:00,26.0630,-83.0730,1.3,5.47,108.38,6.52,'11111222,11111222,11111222' 
COMPS,ioos:station:USF.COMPS:C13:1,2019-09-01T15:35:00,26.0630,-83.0730,1.3,4.48,120.85,6.03,'11111222,11111222,11111222' 
COMPS,ioos:station:USF.COMPS:C13:1,2019-09-01T16:35:00,26.0630,-83.0730,1.3,5.42,113.57,6.91,'11111222,11111222,11111222' 
COMPS,ioos:station:USF.COMPS:C13:1,2019-09-01T17:35:00,26.0630,-83.0730,1.3,4.39,99.61,5.42,'11111222,11111222,11111222' 
COMPS,ioos:station:USF.COMPS:C13:1,2019-09-01T18:35:00,26.0630,-83.0730,1.3,3.18,105.58,4.39,'11111222,11111222,11111222' 
COMPS,ioos:station:USF.COMPS:C13:1,2019-09-01T19:35:00,26.0630,-83.0730,1.3,2.73,100.64,3.64,'11111222,11111222,11111222' 
COMPS,ioos:station:USF.COMPS:C13:1,2019-09-01T20:35:00,26.0630,-83.0730,1.3,1.44,68.68,2.32,'11111222,11111222,11111222' 
COMPS,ioos:station:USF.COMPS:C13:1,2019-09-01T21:35:00,26.0630,-83.0730,1.3,0.55,254.12,1.11,'11111222,11111222,11111222' 
COMPS,ioos:station:USF.COMPS:C13:1,2019-09-01T22:35:00,26.0630,-83.0730,1.3,2.62,355.9,3.85,'11111222,11111222,11111222' 
COMPS,ioos:station:USF.COMPS:C13:1,2019-09-01T23:35:00,26.0630,-83.0730,1.3,3.45,349.45,4.96,'11111222,11111222,11111222' 
COMPS,ioos:station:USF.COMPS:C13:1,2019-09-02T00:35:00,26.0630,-83.0730,1.3,4.45,357.45,6.09,'11111222,11111222,11111222' 
COMPS,ioos:station:USF.COMPS:C13:1,2019-09-02T01:35:00,26.0630,-83.0730,1.3,5.2,20.26,6.62,'11111222,11111222,11111222' 
COMPS,ioos:station:USF.COMPS:C13:1,2019-09-02T02:35:00,26.0630,-83.0730,1.3,5.33,10.23,6.5,'11111222,11111222,11111222' 
COMPS,ioos:station:USF.COMPS:C13:1,2019-09-02T03:35:00,26.0630,-83.0730,1.3,5.64,28.03,6.92,'11111222,11111222,11111222' 
COMPS,ioos:station:USF.COMPS:C13:1,2019-09-02T04:35:00,26.0630,-83.0730,1.3,6.74,32.62,9.54,'11111222,11111222,11111222' 
COMPS,ioos:station:USF.COMPS:C13:1,2019-09-02T05:35:00,26.0630,-83.0730,1.3,5.91,52.86,7.28,'11111222,11111222,11111222' 
COMPS,ioos:station:USF.COMPS:C13:1,2019-09-02T06:35:00,26.0630,-83.0730,1.3,5.33,58.53,6.77,'11111222,11111222,11111222' 
COMPS,ioos:station:USF.COMPS:C13:1,2019-09-02T07:35:00,26.0630,-83.0730,1.3,5.44,51.42,7.26,'11111222,11111222,11111222' 
COMPS,ioos:station:USF.COMPS:C13:1,2019-09-02T08:35:00,26.0630,-83.0730,1.3,5.6,52.68,7.21,'11111222,11111222,11111222' 
COMPS,ioos:station:USF.COMPS:C13:1,2019-09-02T09:35:00,26.0630,-83.0730,1.3,4.64,53.94,6.24,'11111222,11111222,11111222' 
COMPS,ioos:station:USF.COMPS:C13:1,2019-09-02T10:35:00,26.0630,-83.0730,1.3,4.57,34.59,6.11,'11111222,11111222,11111222' 
COMPS,ioos:station:USF.COMPS:C13:1,2019-09-02T11:35:00,26.0630,-83.0730,1.3,3.81,45.33,4.73,'11111222,11111222,11111222' 
COMPS,ioos:station:USF.COMPS:C13:1,2019-09-02T12:35:00,26.0630,-83.0730,1.3,3.94,15.65,5.17,'11111222,11111222,11111222' 
COMPS,ioos:station:USF.COMPS:C13:1,2019-09-02T14:35:00,26.0630,-83.0730,1.3,3.98,346.72,5.11,'11111222,11111222,11111222' 
COMPS,ioos:station:USF.COMPS:C13:1,2019-09-02T15:35:00,26.0630,-83.0730,1.3,4.07,334.55,5.12,'11111222,11111222,11111222' 
COMPS,ioos:station:USF.COMPS:C13:1,2019-09-02T16:35:00,26.0630,-83.0730,1.3,5.12,346.47,6.96,'11111222,11111222,11111222' 
COMPS,ioos:station:USF.COMPS:C13:1,2019-09-02T17:35:00,26.0630,-83.0730,1.3,5.72,349.7,7.24,'11111222,11111222,11111222' 
COMPS,ioos:station:USF.COMPS:C13:1,2019-09-02T18:35:00,26.0630,-83.0730,1.3,6.74,340.66,8.98,'11111222,11111222,11111222' 
COMPS,ioos:station:USF.COMPS:C13:1,2019-09-02T19:35:00,26.0630,-83.0730,1.3,6.89,331.01,8.49,'11111222,11111222,11111222' 
COMPS,ioos:station:USF.COMPS:C13:1,2019-09-02T20:35:00,26.0630,-83.0730,1.3,7.97,335.02,9.85,'11111222,11111222,11111222' 
COMPS,ioos:station:USF.COMPS:C13:1,2019-09-02T21:35:00,26.0630,-83.0730,1.3,8.89,337.66,10.66,'11111222,11111222,11111222' 
COMPS,ioos:station:USF.COMPS:C13:1,2019-09-02T22:35:00,26.0630,-83.0730,1.3,9.23,347.14,10.78,'11111222,11111222,11111222' 
COMPS,ioos:station:USF.COMPS:C13:1,2019-09-02T23:35:00,26.0630,-83.0730,1.3,8.52,348.25,10.37,'11111222,11111222,11111222' 
COMPS,ioos:station:USF.COMPS:C13:1,2019-09-03T00:35:00,26.0630,-83.0730,1.3,8.7,344.71,10.8,'11111222,11111222,11111222' 
COMPS,ioos:station:USF.COMPS:C13:1,2019-09-03T01:35:00,26.0630,-83.0730,1.3,9.08,358.46,11.17,'11111222,11111222,11111222' 
COMPS,ioos:station:USF.COMPS:C13:1,2019-09-03T02:35:00,26.0630,-83.0730,1.3,8.49,356.76,10.02,'11111222,11111222,11111222' 
COMPS,ioos:station:USF.COMPS:C13:1,2019-09-03T03:35:00,26.0630,-83.0730,1.3,7.81,11.74,9.42,'11111222,11111222,11111222' 
COMPS,ioos:station:USF.COMPS:C13:1,2019-09-03T04:35:00,26.0630,-83.0730,1.3,7.72,24.05,9.28,'11111222,11111222,11111222' 
COMPS,ioos:station:USF.COMPS:C13:1,2019-09-03T05:35:00,26.0630,-83.0730,1.3,7.18,17.93,8.75,'11111222,11111222,11111222' 
COMPS,ioos:station:USF.COMPS:C13:1,2019-09-03T06:35:00,26.0630,-83.0730,1.3,7.72,18.62,10.14,'11111222,11111222,11111222' 
COMPS,ioos:station:USF.COMPS:C13:1,2019-09-03T07:35:00,26.0630,-83.0730,1.3,6.45,15.73,7.74,'11111222,11111222,11111222' 
COMPS,ioos:station:USF.COMPS:C13:1,2019-09-03T08:35:00,26.0630,-83.0730,1.3,6.77,7.94,8.11,'11111222,11111222,11111222' 
COMPS,ioos:station:USF.COMPS:C13:1,2019-09-03T09:35:00,26.0630,-83.0730,1.3,6.42,1.89,7.74,'11111222,11111222,11111222' 
COMPS,ioos:station:USF.COMPS:C13:1,2019-09-03T10:35:00,26.0630,-83.0730,1.3,5.58,3.61,7.2,'11111222,11111222,11111222' 
COMPS,ioos:station:USF.COMPS:C13:1,2019-09-03T11:35:00,26.0630,-83.0730,1.3,6.17,358.45,7.4,'11111222,11111222,11111222' 
COMPS,ioos:station:USF.COMPS:C13:1,2019-09-03T12:35:00,26.0630,-83.0730,1.3,5.36,13.7,6.63,'11111222,11111222,11111222' 
COMPS,ioos:station:USF.COMPS:C13:1,2019-09-03T13:35:00,26.0630,-83.0730,1.3,4.09,3.39,5.6,'11111222,11111222,11111222' 
COMPS,ioos:station:USF.COMPS:C13:1,2019-09-03T14:35:00,26.0630,-83.0730,1.3,4.97,3.55,6.3,'11111222,11111222,11111222' 
COMPS,ioos:station:USF.COMPS:C13:1,2019-09-03T15:35:00,26.0630,-83.0730,1.3,5.65,348.19,6.93,'11111222,11111222,11111222' 
COMPS,ioos:station:USF.COMPS:C13:1,2019-09-03T16:35:00,26.0630,-83.0730,1.3,5.93,330.22,7.66,'11111222,11111222,11111222' 
COMPS,ioos:station:USF.COMPS:C13:1,2019-09-03T17:35:00,26.0630,-83.0730,1.3,6.48,341.3,7.89,'11111222,11111222,11111222' 
COMPS,ioos:station:USF.COMPS:C13:1,2019-09-03T18:35:00,26.0630,-83.0730,1.3,6.97,341.26,8.39,'11111222,11111222,11111222' 
COMPS,ioos:station:USF.COMPS:C13:1,2019-09-03T19:35:00,26.0630,-83.0730,1.3,6.81,344.04,8.33,'11111222,11111222,11111222' 
COMPS,ioos:station:USF.COMPS:C13:1,2019-09-03T20:35:00,26.0630,-83.0730,1.3,6.89,333.37,8.63,'11111222,11111222,11111222' 
COMPS,ioos:station:USF.COMPS:C13:1,2019-09-03T21:35:00,26.0630,-83.0730,1.3,7.52,334.46,9.33,'11111222,11111222,11111222' 
COMPS,ioos:station:USF.COMPS:C13:1,2019-09-03T22:35:00,26.0630,-83.0730,1.3,8.07,333.77,9.95,'11111222,11111222,11111222' 
COMPS,ioos:station:USF.COMPS:C13:1,2019-09-03T23:35:00,26.0630,-83.0730,1.3,7.81,341.88,9.43,'11111222,11111222,11111222' 
COMPS,ioos:station:USF.COMPS:C13:1,2019-09-04T00:35:00,26.0630,-83.0730,1.3,9.02,352.49,11.25,'11111222,11111222,11111222' 
COMPS,ioos:station:USF.COMPS:C13:1,2019-09-04T01:35:00,26.0630,-83.0730,1.3,8.93,356.96,10.59,'11111222,11111222,11111222' 
COMPS,ioos:station:USF.COMPS:C13:1,2019-09-04T02:35:00,26.0630,-83.0730,1.3,8.6,1.65,10.76,'11111222,11111222,11111222' 
COMPS,ioos:station:USF.COMPS:C13:1,2019-09-04T03:35:00,26.0630,-83.0730,1.3,7.54,9.37,9.14,'11111222,11111222,11111222' 
COMPS,ioos:station:USF.COMPS:C13:1,2019-09-04T04:35:00,26.0630,-83.0730,1.3,6.29,2.69,7.75,'11111222,11111222,11111222' 
COMPS,ioos:station:USF.COMPS:C13:1,2019-09-04T05:35:00,26.0630,-83.0730,1.3,6.13,17.0,7.58,'11111222,11111222,11111222' 
COMPS,ioos:station:USF.COMPS:C13:1,2019-09-04T06:35:00,26.0630,-83.0730,1.3,5.19,343.97,6.56,'11111222,11111222,11111222' 
COMPS,ioos:station:USF.COMPS:C13:1,2019-09-04T07:35:00,26.0630,-83.0730,1.3,5.26,327.06,6.7,'11111222,11111222,11111222' 
COMPS,ioos:station:USF.COMPS:C13:1,2019-09-04T08:35:00,26.0630,-83.0730,1.3,6.15,306.87,7.89,'11111222,11111222,11111222' 
COMPS,ioos:station:USF.COMPS:C13:1,2019-09-04T09:35:00,26.0630,-83.0730,1.3,5.99,295.52,7.25,'11111222,11111222,11111222' 
COMPS,ioos:station:USF.COMPS:C13:1,2019-09-04T10:35:00,26.0630,-83.0730,1.3,6.51,309.14,8.59,'11111222,11111222,11111222' 
COMPS,ioos:station:USF.COMPS:C13:1,2019-09-04T11:35:00,26.0630,-83.0730,1.3,6.54,298.77,8.04,'11111222,11111222,11111222' 
COMPS,ioos:station:USF.COMPS:C13:1,2019-09-04T12:35:00,26.0630,-83.0730,1.3,6.25,289.22,7.46,'11111222,11111222,11111222' 
COMPS,ioos:station:USF.COMPS:C13:1,2019-09-04T13:35:00,26.0630,-83.0730,1.3,6.62,285.55,8.18,'11111222,11111222,11111222' 
COMPS,ioos:station:USF.COMPS:C13:1,2019-09-04T14:35:00,26.0630,-83.0730,1.3,6.59,290.17,8.28,'11111222,11111222,11111222' 
COMPS,ioos:station:USF.COMPS:C13:1,2019-09-04T15:35:00,26.0630,-83.0730,1.3,6.76,304.72,7.92,'11111222,11111222,11111222' 
COMPS,ioos:station:USF.COMPS:C13:1,2019-09-04T16:35:00,26.0630,-83.0730,1.3,6.06,304.55,7.22,'11111222,11111222,11111222' 
COMPS,ioos:station:USF.COMPS:C13:1,2019-09-04T17:35:00,26.0630,-83.0730,1.3,6.01,308.39,7.56,'11111222,11111222,11111222' 
COMPS,ioos:station:USF.COMPS:C13:1,2019-09-04T18:35:00,26.0630,-83.0730,1.3,5.57,309.98,6.83,'11111222,11111222,11111222' 
COMPS,ioos:station:USF.COMPS:C13:1,2019-09-04T19:35:00,26.0630,-83.0730,1.3,5.28,288.84,6.62,'11111222,11111222,11111222' 
COMPS,ioos:station:USF.COMPS:C13:1,2019-09-04T20:35:00,26.0630,-83.0730,1.3,5.39,287.13,6.47,'11111222,11111222,11111222' 
COMPS,ioos:station:USF.COMPS:C13:1,2019-09-04T21:35:00,26.0630,-83.0730,1.3,6.23,298.0,7.43,'11111222,11111222,11111222' 
COMPS,ioos:station:USF.COMPS:C13:1,2019-09-04T22:35:00,26.0630,-83.0730,1.3,6.42,300.73,8.24,'11111222,11111222,11111222' 
COMPS,ioos:station:USF.COMPS:C13:1,2019-09-04T23:35:00,26.0630,-83.0730,1.3,6.15,299.66,7.32,'11111222,11111222,11111222' 
COMPS,ioos:station:USF.COMPS:C13:1,2019-09-05T00:35:00,26.0630,-83.0730,1.3,6.35,299.8,8.19,'11111222,11111222,11111222' 
COMPS,ioos:station:USF.COMPS:C13:1,2019-09-05T01:35:00,26.0630,-83.0730,1.3,5.28,301.37,6.88,'11111222,11111222,11111222' 
COMPS,ioos:station:USF.COMPS:C13:1,2019-09-05T02:35:00,26.0630,-83.0730,1.3,4.55,300.23,5.83,'11111222,11111222,11111222' 
COMPS,ioos:station:USF.COMPS:C13:1,2019-09-05T03:35:00,26.0630,-83.0730,1.3,4.79,306.54,6.13,'11111222,11111222,11111222' 
COMPS,ioos:station:USF.COMPS:C13:1,2019-09-05T04:35:00,26.0630,-83.0730,1.3,4.0,283.82,4.94,'11111222,11111222,11111222' 
COMPS,ioos:station:USF.COMPS:C13:1,2019-09-05T05:35:00,26.0630,-83.0730,1.3,4.65,283.29,6.12,'11111222,11111222,11111222' 
COMPS,ioos:station:USF.COMPS:C13:1,2019-09-05T06:35:00,26.0630,-83.0730,1.3,4.87,288.13,6.09,'11111222,11111222,11111222' 
COMPS,ioos:station:USF.COMPS:C13:1,2019-09-05T07:35:00,26.0630,-83.0730,1.3,4.7,284.94,6.39,'11111222,11111222,11111222' 
COMPS,ioos:station:USF.COMPS:C13:1,2019-09-05T08:35:00,26.0630,-83.0730,1.3,5.72,268.93,6.89,'11111222,11111222,11111222' 
COMPS,ioos:station:USF.COMPS:C13:1,2019-09-05T09:35:00,26.0630,-83.0730,1.3,5.73,279.97,6.95,'11111222,11111222,11111222' 
COMPS,ioos:station:USF.COMPS:C13:1,2019-09-05T10:35:00,26.0630,-83.0730,1.3,6.25,285.54,7.41,'11111222,11111222,11111222' 
COMPS,ioos:station:USF.COMPS:C13:1,2019-09-05T11:35:00,26.0630,-83.0730,1.3,5.99,299.4,7.3,'11111222,11111222,11111222' 
COMPS,ioos:station:USF.COMPS:C13:1,2019-09-05T12:35:00,26.0630,-83.0730,1.3,5.87,295.71,6.82,'11111222,11111222,11111222' 
COMPS,ioos:station:USF.COMPS:C13:1,2019-09-05T13:35:00,26.0630,-83.0730,1.3,5.03,293.23,6.03,'11111222,11111222,11111222' 
COMPS,ioos:station:USF.COMPS:C13:1,2019-09-05T14:35:00,26.0630,-83.0730,1.3,5.59,291.44,7.08,'11111222,11111222,11111222' 
COMPS,ioos:station:USF.COMPS:C13:1,2019-09-05T15:35:00,26.0630,-83.0730,1.3,5.72,300.38,6.95,'11111222,11111222,11111222' 
COMPS,ioos:station:USF.COMPS:C13:1,2019-09-05T16:35:00,26.0630,-83.0730,1.3,5.51,288.97,6.82,'11111222,11111222,11111222' 
COMPS,ioos:station:USF.COMPS:C13:1,2019-09-05T17:35:00,26.0630,-83.0730,1.3,4.55,283.94,5.87,'11111222,11111222,11111222' 
COMPS,ioos:station:USF.COMPS:C13:1,2019-09-05T18:35:00,26.0630,-83.0730,1.3,5.07,283.16,6.49,'11111222,11111222,11111222' 
COMPS,ioos:station:USF.COMPS:C13:1,2019-09-05T19:35:00,26.0630,-83.0730,1.3,4.86,279.8,6.5,'11111222,11111222,11111222' 
COMPS,ioos:station:USF.COMPS:C13:1,2019-09-05T20:35:00,26.0630,-83.0730,1.3,5.15,273.5,6.63,'11111222,11111222,11111222' 
COMPS,ioos:station:USF.COMPS:C13:1,2019-09-05T21:35:00,26.0630,-83.0730,1.3,5.82,286.52,6.98,'11111222,11111222,11111222' 
COMPS,ioos:station:USF.COMPS:C13:1,2019-09-05T22:35:00,26.0630,-83.0730,1.3,5.52,273.27,6.86,'11111222,11111222,11111222' 
COMPS,ioos:station:USF.COMPS:C13:1,2019-09-05T23:35:00,26.0630,-83.0730,1.3,5.87,283.93,6.88,'11111222,11111222,11111222' 
COMPS,ioos:station:USF.COMPS:C13:1,2019-09-06T00:35:00,26.0630,-83.0730,1.3,5.81,278.11,7.0,'11111222,11111222,11111222' 
COMPS,ioos:station:USF.COMPS:C13:1,2019-09-06T01:35:00,26.0630,-83.0730,1.3,5.7,277.86,6.71,'11111222,11111222,11111222' 
COMPS,ioos:station:USF.COMPS:C13:1,2019-09-06T02:35:00,26.0630,-83.0730,1.3,5.6,270.07,6.67,'11111222,11111222,11111222' 
COMPS,ioos:station:USF.COMPS:C13:1,2019-09-06T03:35:00,26.0630,-83.0730,1.3,5.58,277.92,6.97,'11111222,11111222,11111222' 
COMPS,ioos:station:USF.COMPS:C13:1,2019-09-06T04:35:00,26.0630,-83.0730,1.3,6.23,280.51,7.29,'11111222,11111222,11111222' 
COMPS,ioos:station:USF.COMPS:C13:1,2019-09-06T06:35:00,26.0630,-83.0730,1.3,6.28,274.98,7.66,'11111222,11111222,11111222' 
COMPS,ioos:station:USF.COMPS:C13:1,2019-09-06T07:35:00,26.0630,-83.0730,1.3,6.37,279.23,7.66,'11111222,11111222,11111222' 
COMPS,ioos:station:USF.COMPS:C13:1,2019-09-06T08:35:00,26.0630,-83.0730,1.3,6.21,283.41,7.25,'11111222,11111222,11111222' 
COMPS,ioos:station:USF.COMPS:C13:1,2019-09-06T09:35:00,26.0630,-83.0730,1.3,6.17,278.59,7.73,'11111222,11111222,11111222' 
COMPS,ioos:station:USF.COMPS:C13:1,2019-09-06T10:35:00,26.0630,-83.0730,1.3,6.29,277.5,7.42,'11111222,11111222,11111222' 
COMPS,ioos:station:USF.COMPS:C13:1,2019-09-06T11:35:00,26.0630,-83.0730,1.3,6.83,289.23,8.06,'11111222,11111222,11111222' 
COMPS,ioos:station:USF.COMPS:C13:1,2019-09-06T12:35:00,26.0630,-83.0730,1.3,6.43,291.56,8.05,'11111222,11111222,11111222' 
COMPS,ioos:station:USF.COMPS:C13:1,2019-09-06T13:35:00,26.0630,-83.0730,1.3,6.36,287.15,7.5,'11111222,11111222,11111222' 
COMPS,ioos:station:USF.COMPS:C13:1,2019-09-06T14:35:00,26.0630,-83.0730,1.3,5.44,280.25,6.74,'11111222,11111222,11111222' 
COMPS,ioos:station:USF.COMPS:C13:1,2019-09-06T15:35:00,26.0630,-83.0730,1.3,6.08,283.15,7.82,'11111222,11111222,11111222' 
COMPS,ioos:station:USF.COMPS:C13:1,2019-09-06T16:35:00,26.0630,-83.0730,1.3,5.99,287.41,7.55,'11111222,11111222,11111222' 
COMPS,ioos:station:USF.COMPS:C13:1,2019-09-06T17:35:00,26.0630,-83.0730,1.3,6.52,283.77,7.98,'11111222,11111222,11111222' 
COMPS,ioos:station:USF.COMPS:C13:1,2019-09-06T18:35:00,26.0630,-83.0730,1.3,6.26,285.33,7.87,'11111222,11111222,11111222' 
COMPS,ioos:station:USF.COMPS:C13:1,2019-09-06T19:35:00,26.0630,-83.0730,1.3,5.87,287.07,7.1,'11111222,11111222,11111222' 
COMPS,ioos:station:USF.COMPS:C13:1,2019-09-06T20:35:00,26.0630,-83.0730,1.3,5.89,281.92,7.42,'11111222,11111222,11111222' 
COMPS,ioos:station:USF.COMPS:C13:1,2019-09-06T21:35:00,26.0630,-83.0730,1.3,6.41,285.4,7.57,'11111222,11111222,11111222' 
COMPS,ioos:station:USF.COMPS:C13:1,2019-09-06T22:35:00,26.0630,-83.0730,1.3,5.84,281.42,7.22,'11111222,11111222,11111222' 
COMPS,ioos:station:USF.COMPS:C13:1,2019-09-06T23:35:00,26.0630,-83.0730,1.3,6.24,282.33,7.59,'11111222,11111222,11111222' 
COMPS,ioos:station:USF.COMPS:C13:1,2019-09-07T00:35:00,26.0630,-83.0730,1.3,6.25,282.25,7.71,'11111222,11111222,11111222' 
COMPS,ioos:station:USF.COMPS:C13:1,2019-09-07T01:35:00,26.0630,-83.0730,1.3,6.3,279.56,7.94,'11111222,11111222,11111222' 
COMPS,ioos:station:USF.COMPS:C13:1,2019-09-07T02:35:00,26.0630,-83.0730,1.3,5.98,270.93,7.33,'11111222,11111222,11111222' 
COMPS,ioos:station:USF.COMPS:C13:1,2019-09-07T03:35:00,26.0630,-83.0730,1.3,6.28,276.39,7.7,'11111222,11111222,11111222' 
COMPS,ioos:station:USF.COMPS:C13:1,2019-09-07T04:35:00,26.0630,-83.0730,1.3,5.82,276.31,6.87,'11111222,11111222,11111222' 
COMPS,ioos:station:USF.COMPS:C13:1,2019-09-07T05:35:00,26.0630,-83.0730,1.3,5.51,278.17,6.67,'11111222,11111222,11111222' 
COMPS,ioos:station:USF.COMPS:C13:1,2019-09-07T06:35:00,26.0630,-83.0730,1.3,5.59,283.04,7.03,'11111222,11111222,11111222' 
COMPS,ioos:station:USF.COMPS:C13:1,2019-09-07T07:35:00,26.0630,-83.0730,1.3,5.68,279.17,6.88,'11111222,11111222,11111222' 
COMPS,ioos:station:USF.COMPS:C13:1,2019-09-07T08:35:00,26.0630,-83.0730,1.3,5.88,278.65,6.92,'11111222,11111222,11111222' 
COMPS,ioos:station:USF.COMPS:C13:1,2019-09-07T09:35:00,26.0630,-83.0730,1.3,6.2,278.69,7.31,'11111222,11111222,11111222' 
COMPS,ioos:station:USF.COMPS:C13:1,2019-09-07T10:35:00,26.0630,-83.0730,1.3,3.96,334.02,5.35,'11111222,11111222,11111222' 
COMPS,ioos:station:USF.COMPS:C13:1,2019-09-07T11:35:00,26.0630,-83.0730,1.3,4.26,328.58,5.31,'11111222,11111222,11111222' 
COMPS,ioos:station:USF.COMPS:C13:1,2019-09-07T12:35:00,26.0630,-83.0730,1.3,3.77,322.0,5.03,'11111222,11111222,11111222' 
COMPS,ioos:station:USF.COMPS:C13:1,2019-09-07T13:35:00,26.0630,-83.0730,1.3,3.12,329.87,4.55,'11111222,11111222,11111222' 
COMPS,ioos:station:USF.COMPS:C13:1,2019-09-07T14:35:00,26.0630,-83.0730,1.3,2.89,313.2,4.38,'11111222,11111222,11111222' 
COMPS,ioos:station:USF.COMPS:C13:1,2019-09-07T15:35:00,26.0630,-83.0730,1.3,2.19,302.17,3.48,'11111222,11111222,11111222' 
COMPS,ioos:station:USF.COMPS:C13:1,2019-09-07T16:35:00,26.0630,-83.0730,1.3,2.85,288.32,3.74,'11111222,11111222,11111222' 
COMPS,ioos:station:USF.COMPS:C13:1,2019-09-07T17:35:00,26.0630,-83.0730,1.3,3.04,291.07,4.52,'11111222,11111222,11111222' 
COMPS,ioos:station:USF.COMPS:C13:1,2019-09-07T18:35:00,26.0630,-83.0730,1.3,2.57,295.46,3.68,'11111222,11111222,11111222' 
COMPS,ioos:station:USF.COMPS:C13:1,2019-09-07T19:35:00,26.0630,-83.0730,1.3,2.51,291.28,3.96,'11111222,11111222,11111222' 
COMPS,ioos:station:USF.COMPS:C13:1,2019-09-07T20:35:00,26.0630,-83.0730,1.3,2.38,283.75,3.98,'11111222,11111222,11111222' 
COMPS,ioos:station:USF.COMPS:C13:1,2019-09-07T21:35:00,26.0630,-83.0730,1.3,3.0,284.45,3.87,'11111222,11111222,11111222' 
COMPS,ioos:station:USF.COMPS:C13:1,2019-09-07T22:35:00,26.0630,-83.0730,1.3,2.87,303.21,3.77,'11111222,11111222,11111222' 
COMPS,ioos:station:USF.COMPS:C13:1,2019-09-07T23:35:00,26.0630,-83.0730,1.3,2.6,281.06,3.89,'11111222,11111222,11111222' 
COMPS,ioos:station:USF.COMPS:C13:1,2019-09-08T00:35:00,26.0630,-83.0730,1.3,1.95,296.55,3.02,'11111222,11111222,11111222' 
COMPS,ioos:station:USF.COMPS:C13:1,2019-09-08T01:35:00,26.0630,-83.0730,1.3,2.28,297.77,3.03,'11111222,11111222,11111222' 
COMPS,ioos:station:USF.COMPS:C13:1,2019-09-08T02:35:00,26.0630,-83.0730,1.3,2.58,342.76,3.83,'11111222,11111222,11111222' 
COMPS,ioos:station:USF.COMPS:C13:1,2019-09-08T03:35:00,26.0630,-83.0730,1.3,1.91,340.91,2.63,'11111222,11111222,11111222' 
COMPS,ioos:station:USF.COMPS:C13:1,2019-09-08T04:35:00,26.0630,-83.0730,1.3,1.44,337.09,2.21,'11111222,11111222,11111222' 
COMPS,ioos:station:USF.COMPS:C13:1,2019-09-08T05:35:00,26.0630,-83.0730,1.3,1.55,333.32,2.24,'11111222,11111222,11111222' 
COMPS,ioos:station:USF.COMPS:C13:1,2019-09-08T06:35:00,26.0630,-83.0730,1.3,2.01,3.81,3.54,'11111222,11111222,11111222' 
COMPS,ioos:station:USF.COMPS:C13:1,2019-09-08T07:35:00,26.0630,-83.0730,1.3,1.25,14.14,2.18,'11111222,11111222,11111222' 
COMPS,ioos:station:USF.COMPS:C13:1,2019-09-08T08:35:00,26.0630,-83.0730,1.3,1.37,94.74,2.0,'11111222,11111222,11111222' 
COMPS,ioos:station:USF.COMPS:C13:1,2019-09-08T09:35:00,26.0630,-83.0730,1.3,0.79,45.06,2.33,'11111222,11111222,11111222' 
COMPS,ioos:station:USF.COMPS:C13:1,2019-09-08T10:35:00,26.0630,-83.0730,1.3,1.29,55.03,1.96,'11111222,11111222,11111222' 
COMPS,ioos:station:USF.COMPS:C13:1,2019-09-08T11:35:00,26.0630,-83.0730,1.3,1.28,22.2,2.07,'11111222,11111222,11111222' 
COMPS,ioos:station:USF.COMPS:C13:1,2019-09-08T12:35:00,26.0630,-83.0730,1.3,1.85,83.83,2.44,'11111222,11111222,11111222' 
COMPS,ioos:station:USF.COMPS:C13:1,2019-09-08T13:35:00,26.0630,-83.0730,1.3,1.57,68.24,2.18,'11111222,11111222,11111222' 
COMPS,ioos:station:USF.COMPS:C13:1,2019-09-08T14:35:00,26.0630,-83.0730,1.3,1.45,88.45,2.13,'11111222,11111222,11111222' 
COMPS,ioos:station:USF.COMPS:C13:1,2019-09-08T15:35:00,26.0630,-83.0730,1.3,1.44,96.22,1.94,'11111222,11111222,11111222' 
COMPS,ioos:station:USF.COMPS:C13:1,2019-09-08T16:35:00,26.0630,-83.0730,1.3,0.86,103.72,2.2,'11111222,11111222,11111222' 
COMPS,ioos:station:USF.COMPS:C13:1,2019-09-08T17:35:00,26.0630,-83.0730,1.3,0.79,107.88,1.54,'11111222,11111222,11111222' 
COMPS,ioos:station:USF.COMPS:C13:1,2019-09-08T18:35:00,26.0630,-83.0730,1.3,1.47,86.11,2.49,'11111222,11111222,11111222' 
COMPS,ioos:station:USF.COMPS:C13:1,2019-09-08T19:35:00,26.0630,-83.0730,1.3,1.87,116.16,2.69,'11111222,11111222,11111222' 
COMPS,ioos:station:USF.COMPS:C13:1,2019-09-08T20:35:00,26.0630,-83.0730,1.3,2.11,113.89,3.42,'11111222,11111222,11111222' 
COMPS,ioos:station:USF.COMPS:C13:1,2019-09-08T21:35:00,26.0630,-83.0730,1.3,3.57,92.09,4.5,'11111222,11111222,11111222' 
COMPS,ioos:station:USF.COMPS:C13:1,2019-09-08T22:35:00,26.0630,-83.0730,1.3,2.31,110.67,3.38,'11111222,11111222,11111222' 
COMPS,ioos:station:USF.COMPS:C13:1,2019-09-08T23:35:00,26.0630,-83.0730,1.3,2.69,110.46,3.89,'11111222,11111222,11111222' 
COMPS,ioos:station:USF.COMPS:C13:1,2019-09-09T00:35:00,26.0630,-83.0730,1.3,3.25,87.97,3.95,'11111222,11111222,11111222' 
COMPS,ioos:station:USF.COMPS:C13:1,2019-09-09T01:35:00,26.0630,-83.0730,1.3,3.81,113.58,4.91,'11111222,11111222,11111222' 
COMPS,ioos:station:USF.COMPS:C13:1,2019-09-09T02:35:00,26.0630,-83.0730,1.3,4.67,138.68,5.92,'11111222,11111222,11111222' 
COMPS,ioos:station:USF.COMPS:C13:1,2019-09-09T03:35:00,26.0630,-83.0730,1.3,4.12,139.29,5.48,'11111222,11111222,11111222' 